This is the latest recevied weather packets stored in our database for station/object W4NDF-13. If no packets are shown the sender has not sent any weather packets the latest 1 day(s).
| Time | Temp. | Humidity | Pressure | Rain* | Wind** | Luminosity | Snow |
|---|---|---|---|---|---|---|---|
| 1778004737 | 26.67° C | 66% | 1014.3 hPa | 0 mm | 4.02 m/s, 195° | 839 W/m² | - |
| 1778004433 | 27.22° C | 66% | 1014.4 hPa | 0 mm | 3.13 m/s, 162° | 795 W/m² | - |
| 1778004130 | 27.22° C | 66% | 1014.2 hPa | 0 mm | 3.13 m/s, 167° | 722 W/m² | - |
| 1778003826 | 26.67° C | 66% | 1014.4 hPa | 0 mm | 3.58 m/s, 150° | 744 W/m² | - |
| 1778003523 | 27.22° C | 67% | 1014.2 hPa | 0 mm | 2.68 m/s, 158° | 673 W/m² | - |
| 1778003219 | 27.22° C | 65% | 1014.3 hPa | 0 mm | 2.68 m/s, 225° | 851 W/m² | - |
| 1778002915 | 26.67° C | 67% | 1014.3 hPa | 0 mm | 3.58 m/s, 180° | 825 W/m² | - |
| 1778002612 | 26.67° C | 65% | 1014.4 hPa | 0 mm | 2.68 m/s, 258° | 775 W/m² | - |
| 1778002309 | 27.22° C | 65% | 1014.3 hPa | 0 mm | 4.02 m/s, 200° | 784 W/m² | - |
| 1778002006 | 27.22° C | 65% | 1014.4 hPa | 0 mm | 2.68 m/s, 272° | 761 W/m² | - |
| 1778001704 | 26.67° C | 66% | 1014.5 hPa | 0 mm | 3.13 m/s, 215° | 792 W/m² | - |
| 1778001403 | 27.22° C | 65% | 1014.5 hPa | 0 mm | 4.02 m/s, 208° | 772 W/m² | - |
| 1778001101 | 26.67° C | 65% | 1014.6 hPa | 0 mm | 1.34 m/s, 210° | 812 W/m² | - |
| 1778000798 | 26.67° C | 65% | 1014.4 hPa | 0 mm | 4.02 m/s, 184° | 658 W/m² | - |
| 1778000494 | 26.67° C | 66% | 1014.4 hPa | 0 mm | 2.68 m/s, 175° | 791 W/m² | - |
| 1778000189 | 26.67° C | 65% | 1014.5 hPa | 0 mm | 2.24 m/s, 231° | 781 W/m² | - |
| 1777999885 | 26.11° C | 68% | 1014.4 hPa | 0 mm | 4.47 m/s, 211° | 791 W/m² | - |
| 1777999581 | 26.67° C | 66% | 1014.3 hPa | 0 mm | 5.36 m/s, 174° | 735 W/m² | - |
| 1777999279 | 26.11° C | 67% | 1014.4 hPa | 0 mm | 4.02 m/s, 188° | 750 W/m² | - |
| 1777998977 | 25.56° C | 68% | 1014.5 hPa | 0 mm | 2.68 m/s, 198° | 716 W/m² | - |
| 1777998674 | 25.56° C | 67% | 1014.4 hPa | 0 mm | 4.02 m/s, 199° | 485 W/m² | - |
| 1777998372 | 26.11° C | 67% | 1014.4 hPa | 0 mm | 4.02 m/s, 202° | 439 W/m² | - |
| 1777998069 | 26.11° C | 67% | 1014.5 hPa | 0 mm | 4.92 m/s, 192° | 722 W/m² | - |
| 1777997766 | 26.11° C | 66% | 1014.2 hPa | 0 mm | 4.92 m/s, 155° | 771 W/m² | - |
| 1777997463 | 25.56° C | 68% | 1014.3 hPa | 0 mm | 4.92 m/s, 238° | 706 W/m² | - |
* Rain latest hour (hover to see other rain measurements)
** Current wind speed in m/s (hover to see current wind gust speed)